Regional Weather Roundup
Issued by NWS Jackson, KY

Home | Current Version | Previous Version | Text Only | Print | Product List | Glossary Off
Versions: 1 2 3 4 5 6 7 8 9 10 11 12 13 14 15 16 17 18 19 20 21 22 23 24 25 26 27 28 29 30 31 32 33 34 35 36 37 38 39 40 41 42 43 44 45 46 47 48 49 50

000
ASUS43 KJKL 302310
RWRJKL

EAST KENTUCKY HOURLY WEATHER ROUNDUP
NATIONAL WEATHER SERVICE JACKSON KY
700 PM EDT TUE JUN 30 2015

NOTE: "FAIR" INDICATES FEW OR NO CLOUDS BELOW 12,000 FEET WITH
NO SIGNIFICANT WEATHER AND/OR OBSTRUCTIONS TO VISIBILITY.

* THESE REPORTS ARE NOT UNDER NWS QUALITY CONTROL AND MAY NOT
  REPORT WEATHER SUCH AS PRECIPITATION AND FOG.

KYZ079-080-083-085-087-088-110-112-115-119-120-010000
...EASTERN KENTUCKY...

CITY           SKY/WX    TMP DP  RH WIND       PRES   REMARKS
JACKSON        MOSUNNY   77  67  71 CALM      29.88R
LONDON         MOSUNNY   76  65  68 SW6       29.90S
SOMERSET*      SUNNY     75  64  69 SW5       29.90S
MONTICELLO*    SUNNY     78  70  76 SW6       29.92F
MIDDLESBORO*   PTSUNNY   72  67  85 CALM      29.92F
HARLAN APT*      N/A     70  63  78 CALM      29.92F
HAZARD APT*    CLEAR     77  64  65 SW5       29.89R
BLACK MTN*       N/A     63  63 100 SW5         N/A
PIKEVILLE APT* PTSUNNY   75  66  73 CALM      29.89S
BIG SANDY*     CLOUDY    78  68  72 CALM      29.87F
MOREHEAD APT*  CLOUDY    64  61  88 NW8       29.89F
$$

KYZ035-036-041-042-044-050-067-078-099-010000
...CENTRAL KENTUCKY...

CITY           SKY/WX    TMP DP  RH WIND       PRES   REMARKS
MT STERLING*   PTSUNNY   68  63  83 N14       29.92R
FLEMING/MASON* LGT RAIN  64  63  94 SW8       29.91R
DANVILLE*      SUNNY     79  64  61 W10       29.88S
RICHMOND*      CLOUDY    79  66  65 SW8       29.86S
LEXINGTON      CLOUDY    69  59  70 N14G26    29.88R THUNDER
FRANKFORT      TSTM      67  59  75 VRB5      29.87R
$$

KYZ091>093-OHZ055-061-077-WVZ005-015-034-035-042-010000
...SOUTHERN OHIO/WEST VIRGINIA...

CITY           SKY/WX    TMP DP  RH WIND       PRES   REMARKS
COVINGTON      CLOUDY    67  63  87 S3        29.83F THUNDER
COLUMBUS       CLOUDY    69  63  81 S10       29.80S
DAYTON         PTSUNNY   76  66  71 SW9       29.81R
WILMINGTON     CLOUDY    66  61  84 S8        29.83R
HUNTINGTON     LGT RAIN  61  61 100 SE6       29.88S
CHARLESTON     LGT RAIN  63  58  83 VRB3      29.90R
PINEVILLE*     HVY RAIN  64  63  95 MISG      29.96F VSB 1
BECKLEY        LGT RAIN  66  60  81 NE6       29.94R
BLUEFIELD      CLOUDY    75  60  59 SW9       29.96F
$$

VAZ002-007-008-TNZ017-027-036-066-071-010000
...SOUTHWEST VIRGINIA/EAST TENNESSEE...

CITY           SKY/WX    TMP DP  RH WIND       PRES   REMARKS
WISE*          CLOUDY    70  68  94 SW12      29.97F
JONESVILLE*      N/A    N/A N/A N/A MISG        N/A
ABINGDON*      CLOUDY    76  66  71 SW9       29.90F
BRISTOL        CLOUDY    77  62  59 W15       29.91F
KNOXVILLE      LGT RAIN  74  67  78 NW3       29.91S
OAK RIDGE      MOSUNNY   75  67  76 CALM      29.93S
CROSSVILLE     PTSUNNY   76  67  73 VRB6      29.95F
NASHVILLE      CLOUDY    83  68  60 W8        29.89F
$$

...KEY TO REMARKS...
VSB - VISIBILITY IN MILES
WCI - WIND CHILL INDEX
HX  - HEAT INDEX

$$


USA.gov is the U.S. government's official web portal to all federal, state and local government web resources and services.